[[{"header":{"parameterUnit":"m.s-1","parameterCategory":1,"la1":30.2991,"la2":30.254,"lo1":-89.0895,"lo2":-89.0444,"dy":0.0017,"dx":0.0017,"nx":28,"ny":28,"refTime":"2024-06-13T21:00:00:Z","depth":0,"parameterNumber":2,"parameterNumberName":"U-component_of_WINDS"},"data":[0,0,0,0,0,0,0,0,0,0,0,0,0,0,0,0,0,0,0,0,0,0,0,0,0,0,0,0,0,0,0,0,0,0,0,0,0,0,0,0,0,0,0,0,0,0,0,0,0,0,0,0,0,0,0,0,0,0,-1.5028,-1.5028,0,-1.4974,-1.4974,-1.4973,-1.4945,-1.4945,-1.4945,-1.4945,-1.4888,-1.4887,-1.4885,0,0,0,0,0,0,0,0,0,0,0,0,0,-1.5106,-1.5105,-1.5029,-1.5028,-1.5027,-1.4975,-1.4974,-1.4973,-1.4945,-1.4945,-1.4945,-1.4945,-1.4889,-1.4887,-1.4885,0,0,0,0,0,0,0,0,0,0,0,0,0,-1.5064,-1.5104,-1.5029,-1.5007,-1.5004,-1.4975,-1.4974,-1.4973,-1.4945,-1.4945,-1.4945,-1.4945,-1.4889,-1.4887,-1.4885,-1.4872,0,0,-1.4878,-1.4877,0,0,0,0,0,0,0,0,-1.5067,-1.5061,-1.5011,-1.5008,-1.5005,-1.4966,-1.498,-1.4939,-1.4945,-1.4967,-1.4945,-1.4945,-1.4914,-1.491,-1.49,-1.487,-1.4867,-1.4878,-1.4877,-1.4876,-1.4875,0,0,0,0,0,0,0,-1.5069,-1.5063,-1.5007,-1.501,-1.5007,-1.4999,-1.4993,-1.4972,-1.4942,-1.4965,-1.4963,-1.4957,-1.4913,-1.4902,-1.4898,-1.4866,-1.4878,-1.4876,-1.4875,-1.4874,-1.4823,-1.4823,0,0,0,0,0,0,-1.5076,-1.5066,-1.5009,-1.5005,-1.5036,-1.4998,-1.4991,-1.4979,-1.4942,-1.4936,-1.4957,-1.4956,-1.4906,-1.4901,-1.4896,-1.4879,-1.4876,-1.4874,-1.4872,-1.4823,-1.4823,-1.4823,0,0,0,0,0,0,-1.5078,-1.5071,-1.5011,-1.5035,-1.5027,-1.4997,-1.4983,-1.4978,-1.4967,-1.4936,-1.493,-1.4952,-1.4905,-1.4899,-1.4879,-1.4877,-1.4873,-1.4871,-1.4823,-1.4823,-1.4823,-1.4845,0,0,0,0,0,0,-1.508,-1.5072,-1.5067,-1.5035,-1.5026,-1.4995,-1.4983,-1.4977,-1.4964,-1.4962,-1.4929,-1.4924,-1.4905,-1.4882,-1.4876,-1.4874,-1.4869,-1.4823,-1.4823,-1.4823,-1.4845,-1.4846,-1.4847,0,0,0,0,0,-1.5083,-1.5075,-1.5067,-1.5061,-1.5019,-1.4995,-1.4989,-1.4968,-1.4964,-1.4958,-1.4938,-1.4925,-1.4878,-1.488,-1.4874,-1.487,-1.4823,-1.4823,-1.4823,-1.4844,-1.4846,-1.4847,0,0,0,0,0,0,-1.5108,-1.5071,-1.5061,-1.5043,-1.5022,-1.499,-1.4983,-1.497,-1.495,-1.4949,-1.4923,-1.4916,-1.4897,-1.4882,-1.4885,-1.4856,-1.4849,-1.4848,-1.4867,-1.4869,-1.487,-1.4874,-1.4867,0,0,0,0,0,-1.5111,-1.5095,-1.5063,-1.505,-1.504,-1.5014,-1.5002,-1.4987,-1.4964,-1.4955,-1.4934,-1.4912,-1.4892,-1.4879,-1.4859,-1.4842,-1.4835,-1.4837,-1.4838,-1.4839,-1.4838,-1.4828,-1.4828,-1.4823,-1.4823,-1.4823,0,0,-1.5118,-1.5096,-1.5087,-1.5055,-1.5037,-1.502,-1.5006,-1.4989,-1.4976,-1.4953,-1.4932,-1.4915,-1.4889,-1.487,-1.4861,-1.4856,-1.4838,-1.4839,-1.484,-1.4839,-1.4828,-1.4829,-1.4829,-1.4823,-1.4823,-1.4823,0,0,-1.5121,-1.5103,-1.509,-1.5073,-1.5046,-1.5028,-1.5025,-1.4995,-1.4983,-1.4962,-1.4944,-1.4928,-1.4894,-1.4876,-1.4863,-1.486,-1.4847,-1.4854,-1.4861,-1.4851,-1.4852,-1.4852,-1.4851,-1.4851,-1.4853,-1.4853,-1.4853,0,-1.5133,-1.5108,-1.5085,-1.5069,-1.5055,-1.5034,-1.502,-1.5004,-1.4972,-1.4963,-1.4959,-1.4916,-1.4897,-1.4874,-1.4873,-1.4863,-1.4858,-1.4857,-1.4853,-1.4853,-1.4853,-1.4852,-1.4852,-1.4854,-1.4854,-1.4854,-1.4854,0,-1.5123,-1.5106,-1.5098,-1.5069,-1.5054,-1.5039,-1.5015,-1.5002,-1.4989,-1.4971,-1.495,-1.4926,-1.4901,-1.4894,-1.4881,-1.4869,-1.4867,-1.4858,-1.4851,-1.4855,-1.4853,-1.4853,-1.4856,-1.4855,-1.4855,-1.4855,0,0,-1.5141,-1.5099,-1.5097,-1.5083,-1.5052,-1.5038,-1.5022,-1.4998,-1.4988,-1.4966,-1.4952,-1.4924,-1.4916,-1.4901,-1.4885,-1.4877,-1.4876,-1.4869,-1.4868,-1.4871,-1.4861,-1.4868,-1.4868,-1.4867,-1.4867,-1.4866,-1.4863,0,-1.5141,-1.5112,-1.5091,-1.507,-1.5054,-1.5033,-1.5019,-1.4998,-1.4981,-1.4964,-1.4945,-1.4926,-1.4917,-1.4908,-1.4898,-1.4878,-1.4873,-1.4878,-1.4853,-1.4853,-1.4861,-1.4867,-1.4874,-1.4872,-1.4862,-1.4862,-1.4862,0,-1.5136,-1.5116,-1.5094,-1.5064,-1.5056,-1.5044,-1.5021,-1.5005,-1.4981,-1.4969,-1.4952,-1.4936,-1.4918,-1.4912,-1.4887,-1.489,-1.4879,-1.4867,-1.4867,-1.4864,-1.4858,-1.4864,-1.4871,-1.4871,-1.4861,-1.4861,-1.4861,0,-1.5152,-1.5119,-1.5101,-1.509,-1.5055,-1.5047,-1.5032,-1.5008,-1.4995,-1.4974,-1.4965,-1.4942,-1.4929,-1.4911,-1.4889,-1.4887,-1.4866,-1.4859,-1.4856,-1.4857,-1.4853,-1.4853,-1.4858,-1.4845,-1.4845,-1.4845,-1.4845,0,-1.5153,-1.5141,-1.5108,-1.5097,-1.5082,-1.5058,-1.5043,-1.5026,-1.5005,-1.499,-1.497,-1.4957,-1.4928,-1.4911,-1.4894,-1.4875,-1.487,-1.486,-1.4855,-1.4861,-1.4863,-1.4854,-1.4853,-1.4845,-1.4845,-1.4845,-1.4845,0,-1.5168,-1.5146,-1.5125,-1.5094,-1.5086,-1.5076,-1.5049,-1.5038,-1.502,-1.5001,-1.4995,-1.4967,-1.4946,-1.4922,-1.4893,-1.4881,-1.4864,-1.4857,-1.4872,-1.487,-1.4869,-1.4869,-1.4868,-1.4866,-1.4855,-1.4855,-1.4855,0,-1.5171,-1.5161,-1.5129,-1.5118,-1.5103,-1.5086,-1.5072,-1.5048,-1.5035,-1.5006,-1.4998,-1.4975,-1.4956,-1.4923,-1.49,-1.4877,-1.487,-1.4871,-1.4866,-1.4873,-1.487,-1.4871,-1.487,-1.4872,-1.4873,-1.4873,-1.4873,0,-1.5178,-1.5168,-1.5149,-1.5127,-1.5111,-1.5093,-1.5073,-1.5065,-1.5036,-1.5022,-1.5001,-1.4986,-1.4956,-1.4934,-1.4908,-1.4892,-1.4878,-1.4875,-1.4873,-1.4879,-1.4889,-1.4884,-1.4876,-1.4875,-1.4875,-1.4874,-1.4874,-1.4874,-1.5187,-1.5177,-1.5153,-1.5133,-1.5116,-1.5098,-1.5085,-1.5066,-1.5048,-1.5022,-1.5008,-1.4987,-1.4963,-1.4927,-1.4911,-1.4894,-1.4889,-1.4887,-1.4886,-1.4886,-1.4888,-1.4891,-1.4889,-1.4889,-1.4889,-1.4889,-1.4889,0,-1.5194,-1.5177,-1.5159,-1.5132,-1.5116,-1.5105,-1.5082,-1.507,-1.5051,-1.503,-1.5011,-1.4986,-1.4964,-1.4939,-1.4916,-1.4906,-1.4899,-1.4901,-1.4902,-1.4898,-1.4893,-1.4897,-1.4907,-1.4907,-1.4907,-1.4907,-1.4907,-1.4907,-1.5195,-1.5178,-1.5164,-1.5137,-1.512,-1.51,-1.5088,-1.5071,-1.5054,-1.5027,-1.5009,-1.4993,-1.497,-1.4944,-1.4924,-1.4917,-1.4909,-1.4913,-1.4904,-1.49,-1.4899,-1.4897,-1.4901,-1.4912,-1.4912,-1.4911,-1.4911,-1.4911]},{"header":{"parameterUnit":"m.s-1","parameterCategory":1,"la1":30.2991,"la2":30.254,"lo1":-89.0895,"lo2":-89.0444,"dy":0.0017,"dx":0.0017,"nx":28,"ny":28,"refTime":"2024-06-13T21:00:00:Z","depth":0,"parameterNumber":3,"parameterNumberName":"V-component_of_WINDS"},"data":[0,0,0,0,0,0,0,0,0,0,0,0,0,0,0,0,0,0,0,0,0,0,0,0,0,0,0,0,0,0,0,0,0,0,0,0,0,0,0,0,0,0,0,0,0,0,0,0,0,0,0,0,0,0,0,0,0,0,-3.6192,-3.6192,0,-3.6207,-3.6207,-3.6207,-3.6179,-3.6178,-3.6177,-3.6176,-3.6189,-3.619,-3.6191,0,0,0,0,0,0,0,0,0,0,0,0,0,-3.6137,-3.6138,-3.6192,-3.6192,-3.6192,-3.6207,-3.6207,-3.6207,-3.6179,-3.6178,-3.6177,-3.6176,-3.6188,-3.619,-3.6191,0,0,0,0,0,0,0,0,0,0,0,0,0,-3.6157,-3.6138,-3.6192,-3.618,-3.6179,-3.6207,-3.6207,-3.6207,-3.618,-3.6178,-3.6177,-3.6175,-3.6188,-3.619,-3.6192,-3.623,0,0,-3.6197,-3.6198,0,0,0,0,0,0,0,0,-3.6156,-3.6159,-3.6182,-3.6181,-3.618,-3.619,-3.6192,-3.6215,-3.618,-3.6179,-3.6176,-3.6175,-3.619,-3.6192,-3.6197,-3.6231,-3.6231,-3.6197,-3.6198,-3.6199,-3.6199,0,0,0,0,0,0,0,-3.6155,-3.6158,-3.6198,-3.6182,-3.6181,-3.6173,-3.6175,-3.6196,-3.6192,-3.6179,-3.6177,-3.618,-3.6189,-3.6196,-3.6197,-3.6231,-3.6197,-3.6199,-3.62,-3.62,-3.6299,-3.6301,0,0,0,0,0,0,-3.6155,-3.6157,-3.6197,-3.6198,-3.6164,-3.6176,-3.6177,-3.6188,-3.6192,-3.6191,-3.6181,-3.6178,-3.6193,-3.6195,-3.6198,-3.6245,-3.6199,-3.6201,-3.6202,-3.6298,-3.6299,-3.6301,0,0,0,0,0,0,-3.6154,-3.6159,-3.6196,-3.6177,-3.6181,-3.6178,-3.619,-3.6189,-3.6195,-3.6193,-3.6192,-3.6188,-3.6192,-3.6195,-3.6223,-3.6245,-3.6201,-3.6203,-3.6296,-3.6298,-3.63,-3.6338,0,0,0,0,0,0,-3.6153,-3.6159,-3.6174,-3.6178,-3.6183,-3.6222,-3.6192,-3.619,-3.6199,-3.6196,-3.62,-3.6199,-3.6191,-3.622,-3.6225,-3.6246,-3.6204,-3.6294,-3.6297,-3.63,-3.6335,-3.6342,-3.6347,0,0,0,0,0,-3.6151,-3.6183,-3.6175,-3.6179,-3.6201,-3.6223,-3.6226,-3.6218,-3.6201,-3.6216,-3.6214,-3.6199,-3.6242,-3.6224,-3.6228,-3.6251,-3.6292,-3.6296,-3.6299,-3.6332,-3.634,-3.6347,0,0,0,0,0,0,-3.6179,-3.6183,-3.6174,-3.6208,-3.6216,-3.6219,-3.6237,-3.6226,-3.6238,-3.6234,-3.6222,-3.6223,-3.6254,-3.6254,-3.6234,-3.6289,-3.6264,-3.6269,-3.6288,-3.6295,-3.6301,-3.6301,-3.6206,0,0,0,0,0,-3.619,-3.6209,-3.621,-3.624,-3.6245,-3.6241,-3.625,-3.6243,-3.625,-3.6252,-3.6253,-3.626,-3.6275,-3.6285,-3.6298,-3.6335,-3.6336,-3.6353,-3.6359,-3.6364,-3.6368,-3.6389,-3.6397,-3.6313,-3.6313,-3.6312,0,0,-3.6211,-3.6216,-3.6228,-3.6246,-3.6251,-3.627,-3.6243,-3.6264,-3.6278,-3.6255,-3.6282,-3.6283,-3.6289,-3.6322,-3.6337,-3.6324,-3.6392,-3.6368,-3.6372,-3.6374,-3.6394,-3.6402,-3.6409,-3.6315,-3.6314,-3.6314,0,0,-3.6261,-3.6266,-3.6292,-3.6299,-3.6308,-3.6305,-3.6311,-3.6316,-3.6316,-3.6343,-3.6327,-3.6343,-3.6369,-3.6375,-3.6381,-3.6435,-3.6422,-3.644,-3.6472,-3.6492,-3.6499,-3.6505,-3.6525,-3.6533,-3.6444,-3.6444,-3.6444,0,-3.6286,-3.6316,-3.6307,-3.633,-3.6339,-3.6321,-3.6348,-3.6354,-3.6366,-3.6372,-3.6358,-3.6392,-3.6394,-3.6429,-3.6443,-3.6448,-3.6456,-3.6439,-3.6499,-3.6505,-3.651,-3.653,-3.6537,-3.6446,-3.6446,-3.6446,-3.6445,0,-3.6347,-3.6368,-3.6388,-3.6403,-3.6414,-3.6438,-3.6434,-3.6446,-3.6438,-3.6437,-3.6465,-3.6468,-3.6483,-3.649,-3.6482,-3.6525,-3.6517,-3.6501,-3.6476,-3.6521,-3.6539,-3.6546,-3.6449,-3.6449,-3.6448,-3.6447,0,0,-3.6415,-3.6426,-3.6434,-3.6441,-3.645,-3.6465,-3.6489,-3.6505,-3.6517,-3.6526,-3.6546,-3.6569,-3.6555,-3.6562,-3.6555,-3.6573,-3.6617,-3.6555,-3.6555,-3.6568,-3.6666,-3.6679,-3.6687,-3.6608,-3.6609,-3.6611,-3.6666,0,-3.6465,-3.6509,-3.6503,-3.6544,-3.6564,-3.6547,-3.6568,-3.6576,-3.6576,-3.6591,-3.659,-3.6608,-3.6587,-3.6592,-3.6609,-3.6608,-3.6637,-3.6604,-3.6627,-3.6628,-3.6628,-3.6697,-3.671,-3.6762,-3.6673,-3.6674,-3.6675,0,-3.653,-3.6544,-3.6588,-3.6596,-3.6604,-3.6623,-3.6639,-3.6654,-3.6662,-3.6661,-3.667,-3.666,-3.6684,-3.6658,-3.6691,-3.6669,-3.6678,-3.6679,-3.6681,-3.6684,-3.6655,-3.6702,-3.6778,-3.6787,-3.6685,-3.6685,-3.6684,0,-3.6577,-3.6606,-3.6637,-3.6643,-3.6653,-3.6668,-3.6672,-3.6679,-3.669,-3.6703,-3.6709,-3.6724,-3.6732,-3.6744,-3.6738,-3.6719,-3.6773,-3.6746,-3.6772,-3.6773,-3.6785,-3.6785,-3.6865,-3.6789,-3.6789,-3.6789,-3.6788,0,-3.6634,-3.6662,-3.6659,-3.6678,-3.6709,-3.6701,-3.6732,-3.6734,-3.6741,-3.676,-3.6746,-3.6764,-3.6754,-3.6771,-3.6766,-3.6795,-3.6799,-3.6798,-3.6797,-3.6801,-3.6801,-3.6807,-3.6804,-3.6791,-3.679,-3.679,-3.6789,0,-3.6692,-3.6691,-3.6724,-3.6731,-3.6734,-3.6756,-3.6762,-3.678,-3.6779,-3.6803,-3.6809,-3.6807,-3.6826,-3.6821,-3.6842,-3.6839,-3.6876,-3.6869,-3.6874,-3.6873,-3.69,-3.6899,-3.6988,-3.7,-3.6915,-3.6916,-3.6917,0,-3.673,-3.6751,-3.6762,-3.6775,-3.6781,-3.6801,-3.6812,-3.6806,-3.6818,-3.6831,-3.6847,-3.6866,-3.6881,-3.6912,-3.6913,-3.6929,-3.6923,-3.6953,-3.6925,-3.6929,-3.6925,-3.6925,-3.6927,-3.6959,-3.696,-3.6961,-3.6962,0,-3.6797,-3.6796,-3.6814,-3.6832,-3.6847,-3.686,-3.6872,-3.6883,-3.6878,-3.6892,-3.6913,-3.6925,-3.6947,-3.6966,-3.6981,-3.6985,-3.6973,-3.697,-3.6978,-3.6982,-3.6985,-3.6985,-3.6891,-3.6968,-3.6968,-3.6967,-3.6967,-3.6967,-3.6847,-3.6866,-3.6878,-3.6898,-3.6907,-3.6919,-3.6937,-3.694,-3.6957,-3.6976,-3.6971,-3.6995,-3.7004,-3.7023,-3.7029,-3.7047,-3.7036,-3.7046,-3.7049,-3.7052,-3.7056,-3.6981,-3.705,-3.705,-3.7049,-3.7049,-3.7049,0,-3.6915,-3.6922,-3.6941,-3.696,-3.6977,-3.6965,-3.6978,-3.6993,-3.7015,-3.7025,-3.704,-3.7065,-3.7084,-3.7086,-3.7103,-3.7118,-3.7113,-3.7123,-3.7122,-3.7124,-3.7065,-3.7057,-3.7127,-3.7127,-3.7127,-3.7127,-3.7127,-3.7127,-3.6953,-3.6985,-3.6986,-3.7023,-3.7029,-3.7054,-3.7063,-3.7074,-3.7083,-3.7112,-3.7128,-3.713,-3.7137,-3.7155,-3.7172,-3.7172,-3.7179,-3.7192,-3.719,-3.7135,-3.7127,-3.712,-3.7113,-3.7193,-3.7193,-3.7248,-3.7248,-3.7249]}]]